| time (UTC) | temp F | wind direction | speed MPH | gust MPH | rain 1hr in | rain 24hr in | rain mn in | humidity % | barometer mb |
| 20260504173006 | 73 | 96 | 5.0 | 8.0 | 0.00 | 0.00 | 0.00 | 35 | 1015.7 |
| 20260504172504 | 72 | 96 | 1.0 | 10.0 | 0.00 | 0.00 | 0.00 | 36 | 1015.6 |
| 20260504172004 | 71 | 96 | 2.0 | 14.0 | 0.00 | 0.00 | 0.00 | 36 | 1015.8 |
| 20260504171508 | 71 | 96 | 9.0 | 14.0 | 0.00 | 0.00 | 0.00 | 36 | 1015.8 |
| 20260504171004 | 71 | 96 | 1.0 | 13.0 | 0.00 | 0.00 | 0.00 | 37 | 1015.8 |
| 20260504170504 | 71 | 96 | 9.0 | 13.0 | 0.00 | 0.00 | 0.00 | 37 | 1015.9 |
| 20260504160105 | 70 | 96 | 1.0 | 7.0 | 0.00 | 0.00 | 0.00 | 38 | 1017.2 |
| 20260504151051 | 68 | 96 | 0.0 | 3.0 | 0.00 | 0.00 | 0.00 | 36 | 1018.0 |
| 20260504150553 | 67 | 96 | 0.0 | 3.0 | 0.00 | 0.00 | 0.00 | 38 | 1018.1 |
| 20260504141039 | 61 | 96 | 1.0 | 4.0 | 0.00 | 0.00 | 0.00 | 52 | 1018.1 |
| 20260504140538 | 60 | 96 | 0.0 | 6.0 | 0.00 | 0.00 | 0.00 | 55 | 1018.0 |
| 20260504130530 | 55 | 96 | 0.0 | 3.0 | 0.00 | 0.00 | 0.00 | 63 | 1017.6 |
| 20260504110510 | 44 | 96 | 2.0 | 6.0 | 0.00 | 0.00 | 0.00 | 82 | 1017.2 |
| 20260504100507 | 43 | 96 | 0.0 | 1.0 | 0.00 | 0.00 | 0.00 | 84 | 1017.5 |
| 20260504081554 | 45 | 96 | 0.0 | 3.0 | 0.00 | 0.00 | 0.00 | 78 | 1017.2 |
| 20260504081054 | 45 | 96 | 0.0 | 3.0 | 0.00 | 0.00 | 0.00 | 78 | 1017.1 |
| 20260504080556 | 45 | 96 | 0.0 | 2.0 | 0.00 | 0.00 | 0.00 | 78 | 1017.0 |
| 20260504050536 | 49 | 96 | 0.0 | 0.0 | 0.00 | 0.00 | 0.00 | 73 | 1017.5 |
| 20260504045535 | 49 | 96 | 0.0 | 0.0 | 0.00 | 0.00 | 0.00 | 72 | 1017.3 |
| 20260504044536 | 50 | 96 | 0.0 | 2.0 | 0.00 | 0.00 | 0.00 | 73 | 1017.2 |
| 20260504044036 | 50 | 96 | 0.0 | 1.0 | 0.00 | 0.00 | 0.00 | 74 | 1017.2 |
| 20260504043535 | 50 | 96 | 0.0 | 2.0 | 0.00 | 0.00 | 0.00 | 73 | 1017.2 |
| 20260504043036 | 50 | 96 | 0.0 | 3.0 | 0.00 | 0.00 | 0.00 | 72 | 1017.1 |
| 20260504042536 | 50 | 96 | 1.0 | 3.0 | 0.00 | 0.00 | 0.00 | 72 | 1017.2 |
| 20260504042035 | 51 | 96 | 0.0 | 2.0 | 0.00 | 0.00 | 0.00 | 71 | 1017.4 |
| 20260504041535 | 51 | 96 | 0.0 | 2.0 | 0.00 | 0.00 | 0.00 | 71 | 1017.4 |
| 20260504041035 | 51 | 96 | 0.0 | 3.0 | 0.00 | 0.00 | 0.00 | 70 | 1017.2 |
| 20260504040534 | 51 | 96 | 1.0 | 3.0 | 0.00 | 0.00 | 0.00 | 68 | 1017.1 |
| 20260504040038 | 51 | 96 | 0.0 | 2.0 | 0.00 | 0.00 | 0.00 | 67 | 1017.1 |
| 20260504035535 | 52 | 96 | 0.0 | 2.0 | 0.00 | 0.00 | 0.00 | 65 | 1016.9 |
| 20260504034536 | 52 | 96 | 0.0 | 2.0 | 0.00 | 0.00 | 0.00 | 64 | 1017.0 |
| 20260504034035 | 52 | 96 | 0.0 | 2.0 | 0.00 | 0.00 | 0.00 | 64 | 1017.2 |
| 20260504033535 | 52 | 96 | 0.0 | 2.0 | 0.00 | 0.00 | 0.00 | 64 | 1017.1 |
| 20260504033047 | 52 | 96 | 0.0 | 3.0 | 0.00 | 0.00 | 0.00 | 63 | 1017.1 |
| 20260504032535 | 53 | 96 | 1.0 | 3.0 | 0.00 | 0.00 | 0.00 | 65 | 1017.1 |
| 20260504032034 | 53 | 96 | 0.0 | 0.0 | 0.00 | 0.00 | 0.00 | 62 | 1017.3 |
| 20260504031536 | 53 | 96 | 0.0 | 2.0 | 0.00 | 0.00 | 0.00 | 64 | 1017.3 |
| 20260504031034 | 53 | 96 | 0.0 | 2.0 | 0.00 | 0.00 | 0.00 | 64 | 1017.3 |
| 20260504030534 | 54 | 96 | 0.0 | 1.0 | 0.00 | 0.00 | 0.00 | 66 | 1017.3 |
| 20260504030034 | 54 | 96 | 0.0 | 1.0 | 0.00 | 0.00 | 0.00 | 64 | 1017.2 |
| 20260504025534 | 54 | 96 | 0.0 | 1.0 | 0.00 | 0.00 | 0.00 | 63 | 1017.3 |
| 20260504024543 | 54 | 96 | 0.0 | 1.0 | 0.00 | 0.00 | 0.00 | 64 | 1017.4 |
| 20260504024033 | 55 | 96 | 0.0 | 1.0 | 0.00 | 0.00 | 0.00 | 63 | 1017.4 |
| 20260504023533 | 54 | 96 | 0.0 | 1.0 | 0.00 | 0.00 | 0.00 | 64 | 1017.4 |
| 20260504023034 | 55 | 96 | 0.0 | 1.0 | 0.00 | 0.00 | 0.00 | 65 | 1017.2 |
| 20260504022534 | 55 | 96 | 0.0 | 1.0 | 0.00 | 0.00 | 0.00 | 64 | 1017.2 |
| 20260504022033 | 55 | 96 | 0.0 | 2.0 | 0.00 | 0.00 | 0.00 | 64 | 1017.2 |
| 20260504021536 | 55 | 96 | 0.0 | 2.0 | 0.00 | 0.00 | 0.00 | 64 | 1017.2 |
| 20260504021033 | 56 | 96 | 0.0 | 3.0 | 0.00 | 0.00 | 0.00 | 63 | 1017.1 |
| 20260504020532 | 56 | 96 | 1.0 | 3.0 | 0.00 | 0.00 | 0.00 | 62 | 1016.9 |
| 20260504020033 | 56 | 96 | 0.0 | 1.0 | 0.00 | 0.00 | 0.00 | 62 | 1016.8 |
| 20260504015533 | 56 | 96 | 0.0 | 1.0 | 0.00 | 0.00 | 0.00 | 63 | 1016.7 |
| 20260504014535 | 57 | 96 | 0.0 | 2.0 | 0.00 | 0.00 | 0.00 | 62 | 1016.6 |
| 20260504014035 | 57 | 96 | 0.0 | 2.0 | 0.00 | 0.00 | 0.00 | 61 | 1016.5 |
| 20260504013536 | 57 | 96 | 0.0 | 2.0 | 0.00 | 0.00 | 0.00 | 61 | 1016.3 |
| 20260504013044 | 58 | 96 | 1.0 | 2.0 | 0.00 | 0.00 | 0.00 | 60 | 1016.3 |
| 20260504012535 | 58 | 96 | 0.0 | 2.0 | 0.00 | 0.00 | 0.00 | 59 | 1016.2 |
| 20260504012035 | 58 | 96 | 0.0 | 4.0 | 0.00 | 0.00 | 0.00 | 59 | 1016.2 |
| 20260504011535 | 58 | 96 | 0.0 | 4.0 | 0.00 | 0.00 | 0.00 | 59 | 1016.1 |
| 20260504011035 | 59 | 96 | 1.0 | 3.0 | 0.00 | 0.00 | 0.00 | 58 | 1016.0 |
| 20260504010535 | 59 | 96 | 0.0 | 2.0 | 0.00 | 0.00 | 0.00 | 57 | 1016.0 |
| 20260504010034 | 60 | 96 | 1.0 | 2.0 | 0.00 | 0.00 | 0.00 | 55 | 1016.0 |
| 20260504005534 | 61 | 96 | 0.0 | 2.0 | 0.00 | 0.00 | 0.00 | 53 | 1016.0 |
| 20260504004542 | 62 | 96 | 0.0 | 4.0 | 0.00 | 0.00 | 0.00 | 51 | 1015.8 |
| 20260504004035 | 62 | 96 | 1.0 | 4.0 | 0.00 | 0.00 | 0.00 | 50 | 1015.8 |
| 20260504003534 | 62 | 96 | 0.0 | 7.0 | 0.00 | 0.00 | 0.00 | 49 | 1015.7 |
| 20260504003034 | 63 | 96 | 2.0 | 7.0 | 0.00 | 0.00 | 0.00 | 49 | 1015.7 |
| 20260504002533 | 63 | 96 | 1.0 | 7.0 | 0.00 | 0.00 | 0.00 | 49 | 1015.7 |
| 20260504002038 | 63 | 96 | 1.0 | 7.0 | 0.00 | 0.00 | 0.00 | 48 | 1015.7 |
| 20260504001534 | 63 | 96 | 1.0 | 6.0 | 0.00 | 0.00 | 0.00 | 48 | 1015.7 |
| 20260504001034 | 63 | 96 | 2.0 | 6.0 | 0.00 | 0.00 | 0.00 | 47 | 1015.6 |
| 20260504000534 | 64 | 96 | 0.0 | 6.0 | 0.00 | 0.00 | 0.00 | 47 | 1015.5 |
| 20260504000033 | 64 | 96 | 1.0 | 10.0 | 0.00 | 0.00 | 0.00 | 47 | 1015.6 |
| 20260503235534 | 64 | 96 | 2.0 | 11.0 | 0.00 | 0.00 | 0.00 | 46 | 1015.5 |
| 20260503234530 | 65 | 96 | 6.0 | 10.0 | 0.00 | 0.00 | 0.00 | 46 | 1015.4 |
| 20260503234031 | 65 | 96 | 6.0 | 11.0 | 0.00 | 0.00 | 0.00 | 46 | 1015.4 |
| 20260503233529 | 65 | 96 | 7.0 | 14.0 | 0.00 | 0.00 | 0.00 | 45 | 1015.3 |
| 20260503233033 | 66 | 96 | 9.0 | 14.0 | 0.00 | 0.00 | 0.00 | 44 | 1015.3 |
| 20260503232530 | 66 | 96 | 6.0 | 13.0 | 0.00 | 0.00 | 0.00 | 44 | 1015.3 |
| 20260503232030 | 66 | 96 | 7.0 | 13.0 | 0.00 | 0.00 | 0.00 | 44 | 1015.3 |
| 20260503231530 | 66 | 96 | 8.0 | 14.0 | 0.00 | 0.00 | 0.00 | 43 | 1015.2 |
| 20260503231030 | 67 | 96 | 8.0 | 15.0 | 0.00 | 0.00 | 0.00 | 43 | 1015.3 |
| 20260503230529 | 67 | 96 | 10.0 | 15.0 | 0.00 | 0.00 | 0.00 | 42 | 1015.2 |
| 20260503230030 | 67 | 96 | 6.0 | 13.0 | 0.00 | 0.00 | 0.00 | 42 | 1015.3 |
| 20260503225529 | 67 | 96 | 9.0 | 13.0 | 0.00 | 0.00 | 0.00 | 41 | 1015.3 |
| 20260503224529 | 68 | 96 | 9.0 | 13.0 | 0.00 | 0.00 | 0.00 | 40 | 1015.3 |
| 20260503224029 | 68 | 96 | 7.0 | 13.0 | 0.00 | 0.00 | 0.00 | 39 | 1015.4 |
| 20260503223529 | 69 | 96 | 9.0 | 13.0 | 0.00 | 0.00 | 0.00 | 38 | 1015.4 |
| 20260503223029 | 69 | 96 | 4.0 | 12.0 | 0.00 | 0.00 | 0.00 | 33 | 1015.3 |
| 20260503222528 | 70 | 96 | 6.0 | 12.0 | 0.00 | 0.00 | 0.00 | 31 | 1015.3 |
| 20260503222027 | 70 | 96 | 1.0 | 7.0 | 0.00 | 0.00 | 0.00 | 26 | 1015.4 |
| 20260503221528 | 70 | 96 | 3.0 | 7.0 | 0.00 | 0.00 | 0.00 | 26 | 1015.3 |
| 20260503221031 | 70 | 96 | 1.0 | 6.0 | 0.00 | 0.00 | 0.00 | 26 | 1015.4 |
| 20260503220527 | 70 | 96 | 0.0 | 8.0 | 0.00 | 0.00 | 0.00 | 26 | 1015.4 |
| 20260503220030 | 69 | 96 | 2.0 | 8.0 | 0.00 | 0.00 | 0.00 | 26 | 1015.5 |
| 20260503215527 | 70 | 96 | 2.0 | 10.0 | 0.00 | 0.00 | 0.00 | 26 | 1015.4 |
| 20260503214525 | 71 | 96 | 1.0 | 6.0 | 0.00 | 0.00 | 0.00 | 25 | 1015.6 |
| 20260503214026 | 70 | 96 | 1.0 | 7.0 | 0.00 | 0.00 | 0.00 | 26 | 1015.6 |
| 20260503213526 | 70 | 96 | 3.0 | 7.0 | 0.00 | 0.00 | 0.00 | 25 | 1015.6 |
| 20260503213028 | 70 | 96 | 2.0 | 7.0 | 0.00 | 0.00 | 0.00 | 25 | 1015.8 |
| 20260503212524 | 70 | 96 | 1.0 | 10.0 | 0.00 | 0.00 | 0.00 | 25 | 1015.8 |
| 20260503212023 | 70 | 96 | 6.0 | 10.0 | 0.00 | 0.00 | 0.00 | 24 | 1015.8 |
| 20260503211534 | 71 | 96 | 1.0 | 7.0 | 0.00 | 0.00 | 0.00 | 25 | 1016.0 |
| 20260503211022 | 70 | 96 | 2.0 | 10.0 | 0.00 | 0.00 | 0.00 | 25 | 1015.9 |
| 20260503210520 | 69 | 96 | 1.0 | 10.0 | 0.00 | 0.00 | 0.00 | 25 | 1016.0 |
| 20260503210019 | 69 | 96 | 5.0 | 10.0 | 0.00 | 0.00 | 0.00 | 25 | 1016.0 |
| 20260503205526 | 68 | 96 | 5.0 | 12.0 | 0.00 | 0.00 | 0.00 | 28 | 1016.1 |
| 20260503204519 | 68 | 96 | 3.0 | 10.0 | 0.00 | 0.00 | 0.00 | 28 | 1016.2 |
| 20260503204017 | 69 | 96 | 5.0 | 10.0 | 0.00 | 0.00 | 0.00 | 28 | 1016.2 |
| 20260503203517 | 68 | 96 | 1.0 | 12.0 | 0.00 | 0.00 | 0.00 | 28 | 1016.4 |
| 20260503203019 | 67 | 96 | 0.0 | 16.0 | 0.00 | 0.00 | 0.00 | 29 | 1016.4 |
| 20260503202516 | 67 | 96 | 8.0 | 16.0 | 0.00 | 0.00 | 0.00 | 30 | 1016.5 |
| 20260503202015 | 67 | 96 | 3.0 | 8.0 | 0.00 | 0.00 | 0.00 | 29 | 1016.6 |
| 20260503201515 | 67 | 96 | 2.0 | 9.0 | 0.00 | 0.00 | 0.00 | 32 | 1016.6 |
| 20260503201013 | 67 | 96 | 4.0 | 12.0 | 0.00 | 0.00 | 0.00 | 32 | 1016.8 |
| 20260503200514 | 66 | 96 | 4.0 | 0.0 | 0.00 | 0.00 | 0.00 | 32 | 1016.8 |
| 20260503200013 | 66 | 96 | 5.0 | 12.0 | 0.00 | 0.00 | 0.00 | 34 | 1016.9 |
| 20260503195514 | 65 | 96 | 10.0 | 16.0 | 0.00 | 0.00 | 0.00 | 35 | 1017.1 |
| 20260503194511 | 65 | 96 | 9.0 | 15.0 | 0.00 | 0.00 | 0.00 | 36 | 1017.3 |
| 20260503194011 | 65 | 96 | 7.0 | 11.0 | 0.00 | 0.00 | 0.00 | 36 | 1017.4 |
| 20260503193511 | 65 | 96 | 4.0 | 11.0 | 0.00 | 0.00 | 0.00 | 38 | 1017.4 |
| 20260503193028 | 65 | 96 | 5.0 | 12.0 | 0.00 | 0.00 | 0.00 | 37 | 1017.5 |
| 20260503192509 | 65 | 96 | 5.0 | 12.0 | 0.00 | 0.00 | 0.00 | 37 | 1017.5 |
| 20260503192010 | 65 | 96 | 4.0 | 12.0 | 0.00 | 0.00 | 0.00 | 38 | 1017.5 |
| 20260503191509 | 65 | 96 | 3.0 | 9.0 | 0.00 | 0.00 | 0.00 | 38 | 1017.7 |
| 20260503191009 | 64 | 96 | 4.0 | 14.0 | 0.00 | 0.00 | 0.00 | 39 | 1017.8 |
| 20260503190510 | 64 | 96 | 10.0 | 14.0 | 0.00 | 0.00 | 0.00 | 38 | 1017.9 |
| 20260503190018 | 64 | 96 | 3.0 | 11.0 | 0.00 | 0.00 | 0.00 | 39 | 1017.8 |
| 20260503185507 | 64 | 96 | 4.0 | 10.0 | 0.00 | 0.00 | 0.00 | 39 | 1018.0 |
| 20260503184508 | 63 | 96 | 6.0 | 9.0 | 0.00 | 0.00 | 0.00 | 40 | 1018.3 |
| 20260503184007 | 63 | 96 | 2.0 | 12.0 | 0.00 | 0.00 | 0.00 | 41 | 1018.3 |
| 20260503183508 | 63 | 96 | 7.0 | 12.0 | 0.00 | 0.00 | 0.00 | 41 | 1018.3 |
| 20260503183007 | 63 | 96 | 1.0 | 10.0 | 0.00 | 0.00 | 0.00 | 41 | 1018.4 |
| 20260503182509 | 63 | 96 | 5.0 | 9.0 | 0.00 | 0.00 | 0.00 | 41 | 1018.6 |
| 20260503182011 | 63 | 96 | 2.0 | 7.0 | 0.00 | 0.00 | 0.00 | 41 | 1018.7 |
| 20260503181506 | 63 | 96 | 4.0 | 8.0 | 0.00 | 0.00 | 0.00 | 40 | 1018.8 |
| 20260503181007 | 63 | 96 | 4.0 | 10.0 | 0.00 | 0.00 | 0.00 | 41 | 1018.9 |
| 20260503180505 | 62 | 96 | 2.0 | 11.0 | 0.00 | 0.00 | 0.00 | 41 | 1018.9 |
| 20260503180004 | 62 | 96 | 6.0 | 11.0 | 0.00 | 0.00 | 0.00 | 42 | 1018.9 |
| 20260503175502 | 62 | 96 | 3.0 | 10.0 | 0.00 | 0.00 | 0.00 | 42 | 1018.9 |
| 20260503174502 | 61 | 96 | 1.0 | 10.0 | 0.00 | 0.00 | 0.00 | 41 | 1019.1 |
| 20260503174002 | 60 | 96 | 2.0 | 14.0 | 0.00 | 0.00 | 0.00 | 42 | 1019.1 |
| 20260503173504 | 61 | 96 | 5.0 | 13.0 | 0.00 | 0.00 | 0.00 | 41 | 1019.2 |